Flag for United Kingdom Weather past 2 weeks in Newport, Wales, United Kingdom

Now
59 °F

Passing clouds.


Feels Like: 55 °F
Forecast: 38 / 54 °F
Wind: 21 mph from Northeast

Location: Bristol / Lulsgate

Current Time: Apr 18, 2015 at 5:29:54 PM

Latest Report: Apr 18, 2015 at 4:50 PM


Visibility: N/A

Pressure: 30.27 "Hg

Humidity: 45%

Dew point: 37 °F

Location of NewportLocation

Historic Weather in Newport — Graph

°F

Newport temperature yesterday

Maximum temperature yesterday: 59 °F (at 2:50 PM)
Minimum temperature yesterday: 45 °F (at 3:50 AM)
Average temperature yesterday: 50 °F

Past Weeks' High & Low Weather Summary

 TemperatureHumidityPressure
High63 °F (Apr 6, 2:20 PM)100% (Apr 3, 6:50 PM)30.63 "Hg (Apr 3, 6:50 PM)
Low39 °F (Apr 7, 5:20 AM)42% (Apr 9, 5:50 PM)29.86 "Hg (Apr 11, 2:20 AM)
Average50 °F75%30.24 "Hg
* Reported Apr 3 4:20 PM — Apr 18 4:20 PM, Newport, Weather by CustomWeather, © 2015

Note: Actual official high and low records may vary slightly from our data, if they occured in-between our weather recording intervals... More about our weather records

Advertising

Newport weather history for previous 24 hours

 ConditionsComfort  
Time TempWeatherWind HumidityBarometerVisibility
4:20 PM
Sat, Apr 18
59 °FPassing clouds.23 mph45%30.27 "HgN/A
3:50 PM59 °FPassing clouds.22 mph45%30.27 "HgN/A
3:20 PM59 °FPassing clouds.20 mph45%30.27 "HgN/A
2:50 PM59 °FSunny.20 mph45%30.27 "Hg10 mi
2:20 PM57 °FSunny.18 mph48%30.27 "Hg10 mi
1:50 PM57 °FSunny.22 mph48%30.30 "Hg10 mi
1:20 PM55 °FSunny.20 mph47%30.30 "Hg10 mi
12:50 PM55 °FSunny.21 mph44%30.30 "Hg10 mi
12:20 PM54 °FSunny.17 mph47%30.30 "Hg10 mi
11:50 AM54 °FSunny.18 mph51%30.33 "Hg10 mi
11:20 AM50 °FPassing clouds.21 mph54%30.33 "HgN/A
10:50 AM48 °FPassing clouds.21 mph62%30.33 "HgN/A
10:20 AM46 °FPassing clouds.21 mph66%30.33 "HgN/A
9:50 AM45 °FPassing clouds.20 mph71%30.33 "HgN/A
9:20 AM43 °FPassing clouds.21 mph76%30.33 "HgN/A
8:50 AM43 °FPassing clouds.17 mph76%30.33 "HgN/A
8:20 AM41 °FScattered clouds.17 mph81%30.33 "HgN/A
7:50 AM39 °FPartly sunny.14 mph87%30.33 "HgN/A
7:20 AM39 °FPartly sunny.15 mph81%30.33 "HgN/A
6:50 AM39 °FPassing clouds.17 mph81%30.30 "HgN/A
6:20 AM39 °FOvercast.15 mph81%30.30 "HgN/A
5:20 AM39 °FPassing clouds.20 mph81%30.30 "HgN/A
4:50 AM39 °FPassing clouds.20 mph87%30.30 "HgN/A
3:20 AM41 °FPassing clouds.16 mph87%30.27 "HgN/A
2:50 AM41 °FPassing clouds.16 mph87%30.27 "HgN/A
2:20 AM43 °FPassing clouds.16 mph87%30.27 "HgN/A
1:50 AM43 °FClear.17 mph87%30.27 "Hg10 mi
1:20 AM43 °FClear.16 mph87%30.27 "Hg10 mi
12:50 AM45 °FClear.15 mph81%30.27 "Hg10 mi
12:20 AM45 °FClear.16 mph81%30.27 "Hg10 mi
11:50 PM
Fri, Apr 17
46 °FClear.17 mph76%30.27 "Hg10 mi
11:20 PM46 °FClear.17 mph76%30.24 "Hg10 mi
10:50 PM48 °FClear.16 mph71%30.24 "Hg10 mi
10:20 PM48 °FClear.15 mph66%30.24 "Hg10 mi
9:50 PM50 °FClear.14 mph58%30.21 "Hg10 mi
9:20 PM48 °FClear.14 mph62%30.21 "Hg10 mi
8:50 PM50 °FSunny.16 mph54%30.18 "Hg10 mi
8:20 PM50 °FSunny.14 mph58%30.18 "Hg10 mi
7:50 PM52 °FSunny.20 mph58%30.18 "Hg10 mi
7:20 PM54 °FSunny.15 mph54%30.15 "Hg10 mi
6:50 PM54 °FSunny.14 mph54%30.15 "Hg10 mi
6:20 PM55 °FPassing clouds.17 mph47%30.15 "HgN/A
5:50 PM55 °FPassing clouds.16 mph51%30.12 "HgN/A
5:20 PM57 °FPassing clouds.15 mph48%30.12 "HgN/A
Weather by CustomWeather, © 2015

See weather overviewHow to use our weather pages